Location: Poprad
(49.0500°N, 20.3000°E)
Time: 01:28:38
(UTC+01:00)

ISS - Pass Details

Date: 29 January 2021
Orbit: 417 x 422 km, 51.6° (Epoch: 06 March)

Event Time Altitude Azimuth Distance (km) Brightness Sun altitude
Rises 19:38:47 0° 290° (WNW) 2,376 1.2 -30.7°
Reaches altitude 10° 19:40:54 10° 287° (WNW) 1,510 -0.1 -31.0°
Enters shadow 19:41:20 13° 285° (WNW) 1,337 -0.4 -31.1°
